STARLINK-35728 (66544 NORAD) Tracking and Keplerian Element Data

This shows tracking and keplerian element data for the satellite.

Feedback or suggestion? Click here.




ElementValue
Catalog66544
NameSTARLINK-35728
Epoch Orbit609
Epoch Day354.25003472
Epoch Year2025
RAAN10.0127
Inclination43.0002
Eccentricity0.0001316
Argument of Perigee268.5484
Mean Anonmoly118.41
Mean Motion15.44088379
Decay Rate-0.01982385
L11 66544U 25265AE 25354.25003472 -.01982385 00000+0 -47457-1 0 9992
L22 66544 43.0002 10.0127 0001316 268.5484 118.4100 15.44088379 6094



Live tracking and technical data element details for STARLINK-35728 (NORAD 66544). STARLINK-35728 can be tracked NOW for your location showing map with azimuth and elevation plus other details from your city location.







IsCatalogInMostPopularTable: catalog: 66544, numindb: 8
Update: records affected: 1



GetName: 66544 STARLINK-35728

Hit Count: updated at: Sat, 11 Apr 2026 21:50:43 GMT